User: anonymous   Login
Location: Helsinki
(60.1699°N, 24.9384°E)
Time: 23:57:10
(UTC+02:00)
Language:

XW-2F - Orbit

View from above orbital plane
View from above orbital plane
View from above satellite
View from above satellite

Ground track
Ground track

The orbit data is extracted from the following two-line orbital elements,

1 40910U 15049M   23332.56721317  .00087900  00000-0  13421-2 0  9995
2 40910  97.4478 349.9625 0003907 232.7988 127.2909 15.54122701454383
Epoch (UTC): 28 November 2023 13:36:47
Eccentricity: 0.0003907
inclination: 97.4478°
perigee height: 402 km
apogee height: 407 km
right ascension of ascending node: 349.9625°
argument of perigee: 232.7988°
revolutions per day: 15.54122701
mean anomaly at epoch: 127.2909°
orbit number at epoch: 45438

The dashed part of the orbit path shows where the satellite is in the earth's shadow,  

DLR